Temp_Advection
nan nan nan nan nan nan nan nan nan nan nan nan nan nan nan nan nan nan nan nan nan nan nan nan nan nan nan nan nan nan nan nan nan nan nan nan nan nan nan nan nan nan nan nan nan nan nan nan nan nan nan nan nan nan nan nan nan nan nan nan nan nan nan nan nan nan nan nan nan
nan -0 -0 -0 -0 0 0 0 0 0 0 0 0 0 -0 -1 -1 -1 -1 -1 -1 -1 -1 -1 -1 -1 -1 -1 -1 -1 -1 -1 -1 -1 -1 -0 -0 -0 -1 -1 -1 -1 -1 -1 -1 -1 -1 -1 -1 -1 -1 -1 -1 -1 -1 -1 -1 -1 -1 -1 -1 -1 -1 -1 -1 -1 -1 -1 nan
nan -0 -0 -0 -0 -0 -0 0 -0 -0 -0 -0 -0 -1 -1 -1 -1 -1 -1 -1 -1 -1 -1 -1 -1 -1 -1 -1 -1 -1 -1 -1 -1 -1 -1 -1 -0 -0 -0 -1 -0 -0 -0 -0 -0 -0 -0 -0 -0 -0 -0 -0 -1 -1 -1 -1 -1 -1 -1 -1 -1 -1 -1 -1 -1 -1 -1 -1 nan
nan -0 -0 -0 -0 -0 -0 -0 -0 -0 -1 -1 -1 -1 -1 -1 -1 -1 -1 -1 -1 -1 -1 -1 -1 -1 -1 -1 -1 -0 -0 -0 -1 -0 -0 -1 -1 -0 -0 -1 -0 -0 -0 -0 -0 -0 0 0 0 0 0 0 0 -0 -0 -0 -0 -0 -0 -1 -1 -1 -1 -1 -1 -1 -1 -1 nan
nan -0 -0 -1 -1 -1 -1 -1 -1 -1 -1 -1 -1 -1 -1 -1 -1 -1 -1 -1 -1 -1 -1 -1 -1 -1 -1 -1 -0 -0 -0 -0 -0 -0 -0 -0 -1 -0 -0 -0 -0 -0 -0 -0 0 -0 0 0 0 1 0 1 1 1 1 0 0 0 0 -0 -0 -0 -1 -1 -1 -1 -1 -1 nan
nan -1 -1 -1 -1 -1 -1 -1 -1 -1 -1 -1 -1 -1 -1 -1 -1 -1 -1 -1 -1 -0 -0 -1 -1 -0 -0 -0 -0 -0 -0 -0 -0 -0 -0 -0 -0 -0 -0 -0 -0 -0 -0 -0 -0 -0 -0 -0 0 0 0 0 1 1 1 1 1 0 0 0 0 -0 -0 -1 -1 -1 -1 -1 nan
nan -1 -1 -1 -1 -1 -1 -1 -1 -1 -1 -1 -1 -1 -1 -1 -1 -0 -0 -0 -0 -0 -0 -1 -1 -0 -0 -0 -0 -0 -0 -0 -0 -0 -0 -0 -0 -0 -0 -0 -0 -0 -0 -0 -0 -0 -0 -1 -0 -0 -0 -0 0 0 1 1 1 1 0 -0 0 0 -0 -1 -1 -1 -1 -1 nan
nan -1 -1 -1 -1 -1 -1 -1 -1 -1 -1 -1 -1 -1 -1 -0 -0 -0 -0 -0 -0 -1 -1 -0 -0 -0 -0 -0 -0 -0 -0 -0 -0 -0 -0 -0 -0 -0 -0 -0 -0 -0 -0 -0 -0 -0 -0 -0 -0 -0 -0 -0 -0 -0 -0 -0 0 1 0 -0 -0 0 -0 -1 -1 -1 -1 -2 nan
nan -1 -1 -1 -1 -1 -1 -1 -1 -1 -1 -0 -0 -0 -0 -0 -0 -0 -0 -0 -1 -1 -1 -0 -0 -0 -0 -0 -0 -0 -0 -1 -1 -0 -0 -1 -1 -0 -1 -1 -1 -0 -0 -1 -1 -0 -0 -0 -0 0 -0 -1 -1 -0 -0 -1 -1 -0 0 -1 -1 -0 -0 -0 -1 -1 -1 -1 nan
nan -1 -1 -1 -1 -1 -1 -1 -1 -1 -0 -0 -0 -0 -0 -0 -0 -0 -1 -1 -1 -1 -1 -1 -0 -0 -0 -0 -0 -0 -1 -1 -1 -1 -1 -1 -1 -1 -1 -1 -1 -1 -1 -1 -1 -1 -1 -0 -0 0 0 -0 -1 -0 -0 -0 -1 -1 -1 -1 -1 -1 -1 -1 -1 -1 -1 -1 nan
nan -1 -1 -1 -1 -1 -1 -1 -1 -1 -0 -0 -0 -0 -0 -0 -1 -1 -1 -1 -1 -0 -0 -1 -0 -0 -0 -1 -1 -0 -1 -1 -1 -1 -1 -1 -1 -1 -1 -1 -1 -1 -1 -1 -1 -1 -1 -1 -1 -0 0 0 -0 -1 -0 -0 -1 -1 -1 -1 -1 -2 -2 -1 -1 -1 -1 -1 nan
nan -1 -1 -1 -1 -1 -1 -1 -1 -1 -1 -1 -1 -1 -1 -1 -1 -1 -1 -1 -0 -0 -0 -0 -0 -0 -0 -1 -1 -1 -1 -1 -1 -1 -1 -1 -1 -1 -1 -1 -1 -1 -1 -1 -1 -1 -1 -1 -1 -1 -0 0 0 -0 -1 -0 -1 -1 -1 -1 -1 -2 -2 -2 -2 -1 -1 -1 nan
nan -1 -1 -0 -0 -0 -0 -0 -1 -1 -1 -1 -1 -1 -1 -1 -1 -1 -1 -0 -0 -0 -0 -0 -0 -0 -0 -0 -1 -1 -1 -1 -1 -1 -1 -1 -1 -1 -1 -1 -1 -1 -1 -1 -1 -1 -1 -1 -1 -1 -1 -0 0 0 0 0 -0 -1 -2 -2 -2 -2 -2 -2 -2 -2 -2 -1 nan
nan -1 -1 -0 -0 -0 -0 -1 -1 -1 -1 -1 -1 -1 -1 -1 -1 -1 -0 -0 -0 -0 -0 -0 -0 -0 -0 -0 -0 -1 -1 -1 -1 -1 -1 -1 -1 -1 -1 -1 -1 -1 -1 -1 -1 -1 -1 -1 -1 -1 -1 -1 0 1 1 1 1 0 -1 -1 -2 -1 -1 -2 -2 -2 -2 -2 nan
nan -0 -0 -0 -0 -0 -0 -1 -1 -1 -1 -1 -1 -1 -1 -1 -1 -1 -0 -0 -0 -0 -0 -0 -0 -0 -0 -1 -1 -0 -0 -1 -1 -1 -0 -0 -1 -1 -1 -1 -1 -1 -1 -1 -0 -0 -0 -1 -0 -1 -1 -1 -0 0 1 1 2 2 1 0 -1 -1 -1 -1 -1 -1 -1 -1 nan
nan -0 -0 -0 -0 -0 -0 -1 -1 -1 -1 -1 -1 -1 -1 -1 -0 -1 -1 -1 -0 -0 -0 -1 -1 -0 -0 -1 -1 -1 -0 -0 -1 -1 -1 -1 -1 -1 -1 -1 -1 -1 -1 -1 -1 -0 -0 -0 -0 -0 -0 -0 -0 0 1 1 2 2 2 2 1 1 0 -0 -0 -0 -1 -1 nan
nan -0 -1 -0 -0 -0 -0 -1 -1 -1 -1 -1 -1 -1 -1 -1 -1 -1 -1 -1 -1 -1 -0 -1 -1 -1 -0 -0 -1 -1 -1 -0 -0 -1 -1 -1 -1 -1 -1 -1 -1 -1 -1 -1 -1 -1 -1 -0 -0 0 0 0 0 0 0 1 2 2 2 2 2 2 1 1 0 -0 -0 -0 nan
nan -1 -1 -1 -1 -1 -1 -1 -1 -1 -1 -1 -1 -1 -1 -1 -1 -0 -0 -1 -1 -1 -1 -0 -1 -1 -1 -0 -0 -1 -1 -1 -0 -1 -1 -1 -1 -1 -1 -1 -0 -1 -1 -1 -1 -1 -1 -1 -0 -0 -0 -0 0 0 0 1 1 2 2 2 2 2 1 1 1 0 -0 -0 nan
nan -1 -1 -1 -1 -1 -1 -1 -1 -1 -1 -1 -0 -0 -0 -0 -0 -0 -0 -0 -0 -1 -1 -1 -0 -0 -0 -0 -0 -0 -0 -1 -0 -0 -0 -1 -1 -1 -0 -0 -0 -0 -1 -1 -1 -1 -1 -1 -1 -1 -1 -0 -0 -0 -0 0 1 1 1 1 1 1 1 1 0 0 -0 -0 nan
nan -1 -1 -1 -1 -1 -1 -1 -0 -0 -0 -0 -0 -0 -0 -0 -0 -0 -0 -0 -0 -0 -1 -1 -1 -0 -0 -0 -0 -0 -0 -0 -0 -0 -0 -0 -1 -1 -1 -1 -1 -0 -1 -1 -1 -1 -1 -1 -1 -1 -1 -1 -1 -1 -1 -1 -0 0 0 0 0 0 0 0 0 0 -0 -0 nan
nan -1 -1 -1 -1 -0 -0 -0 -0 -0 -0 -0 -0 -0 -0 -0 -0 -0 -0 -0 -0 -0 -0 -0 -1 -1 -1 -1 -1 -0 -0 -0 -0 -0 -0 -0 -0 -1 -1 -1 -1 -1 -0 -1 -1 -1 -1 -1 -1 -1 -2 -2 -1 -1 -1 -2 -1 -1 -0 0 -0 -0 0 0 0 -0 -0 -0 nan
nan -1 -1 -0 -0 -0 -0 -0 -0 -0 -0 -0 -0 -0 -0 -0 -0 -0 -0 -0 -0 -0 -0 -0 -0 -0 -0 -1 -1 -1 -0 -0 -0 -0 -0 -0 -0 -0 -0 -1 -1 -1 -1 -1 -1 -1 -1 -1 -1 -2 -2 -2 -2 -1 -1 -1 -1 -1 -1 -0 -0 -0 0 0 0 -0 -0 -0 nan
nan -0 -0 -0 -0 -0 -0 -0 -0 -0 -0 -0 -0 -0 -0 -0 -0 -0 -0 -0 -0 -0 -0 -0 -0 -0 -0 -0 -0 -1 -1 -1 -0 -0 -0 -0 -0 -0 -0 -0 -1 -1 -1 -1 -1 -1 -2 -2 -2 -2 -2 -2 -2 -2 -1 -1 -1 -1 -1 -1 -1 -0 -0 0 0 0 0 -0 nan
nan -0 -0 -0 -0 -0 -0 -0 -0 -0 -0 -0 -0 -0 -0 -0 -0 -0 -0 -0 -0 -0 -0 -0 -0 -0 -0 -0 -0 -0 -1 -1 -1 -1 -0 -0 -1 -1 -1 -1 -1 -1 -1 -1 -1 -1 -1 -2 -2 -2 -2 -2 -2 -2 -1 -1 -1 -1 -0 -1 -1 -1 -0 -0 0 0 0 0 nan
nan -0 -0 -0 -0 -0 -0 -0 -0 -0 -0 -0 -0 -0 -0 -0 -0 -0 -0 -0 -0 -0 -0 -0 -0 -0 -0 -0 -0 -0 -0 -1 -1 -1 -1 -1 -1 -1 -1 -1 -1 -1 -1 -1 -1 -0 -0 -0 -1 -1 -1 -1 -1 -1 -1 -1 -1 -1 -0 -0 -1 -1 -1 -1 -0 -0 -0 -0 nan
nan -0 -0 -0 -0 -0 -0 -0 -0 -1 -0 -0 -0 -0 -0 -1 -1 -0 -0 -1 -0 -0 -0 -0 -0 -0 -0 -0 -0 -0 -0 -1 -1 -1 -1 -1 -1 -1 -1 -1 -1 -1 -1 -1 -1 -1 -0 0 0 0 -0 -1 -1 -1 -1 -1 -1 -1 -1 -0 -0 -1 -1 -1 -1 -0 -0 -0 nan
nan -0 -0 -0 -0 -0 -0 -1 -1 -1 -1 -1 -0 -0 -0 -0 -1 -1 -0 -1 -1 -0 -0 -0 -0 -1 -1 -0 -1 -1 -1 -1 -1 -1 -1 -1 -1 -1 -1 -1 -1 -1 -1 -1 -1 -1 -1 -1 -0 0 0 -0 -1 -1 -1 -1 -1 -1 -1 -1 -0 -0 -1 -1 -1 -1 -1 -1 nan
nan -0 -0 -0 -0 -1 -1 -1 -1 -1 -1 -1 -1 -1 -1 -1 -0 -0 -1 -0 -1 -1 -1 -1 -1 -1 -1 -1 -1 -1 -1 -1 -1 -1 -1 -1 -1 -1 -1 -1 -1 -1 -1 -1 -1 -1 -1 -1 -0 -0 0 0 -0 -1 -1 -1 -1 -1 -1 -1 -1 -1 -0 -0 -1 -1 -1 -1 nan
nan -0 -0 -0 -0 -1 -1 -1 -1 -1 -1 -1 -1 -1 -1 -0 -1 -1 -1 -1 -1 -1 -1 -1 -1 -1 -1 -1 -1 -1 -1 -1 -1 -1 -1 -1 -1 -1 -1 -1 -1 -1 -1 -1 -1 -1 -1 -0 -0 -0 0 0 -0 -0 -1 -1 -1 -1 -1 -1 -1 -1 -1 -0 -0 -0 -1 -1 nan
nan -1 -1 -1 -1 -1 -1 -1 -1 -1 -1 -1 -0 -0 -1 -0 -1 -1 -1 -1 -1 -1 -1 -1 -1 -1 -1 -1 -1 -1 -1 -1 -1 -1 -1 -1 -1 -1 -1 -1 -1 -1 -0 -0 -0 -0 -1 -0 -0 -0 -0 0 0 -0 -0 -1 -1 -1 -1 -1 -1 -1 -1 -1 -1 -1 -1 -1 nan
nan -1 -1 -1 -1 -1 -1 -0 -0 -0 -0 -0 -0 -1 -0 -1 -1 -1 -1 -1 -1 -1 -1 -1 -1 -1 -1 -0 -1 -1 -1 -1 -1 -1 -1 -1 -1 -1 -1 -1 -1 -0 -0 -0 -0 -0 -0 -0 -0 -0 -0 -0 -0 -0 -0 -0 -0 -1 -1 -1 -1 -1 -1 -1 -1 -1 -1 -1 nan
nan -0 -1 -0 -0 -1 -1 -0 -0 -0 -0 -0 -0 -0 -1 -0 -0 -1 -1 -1 -1 -1 -1 -1 -1 -1 -1 -1 -1 -1 -1 -1 -1 -1 -1 -1 -1 -1 -1 -1 -1 -0 -0 -0 -0 -0 -0 -0 -0 -0 -0 -0 -0 -0 -0 -0 -0 -1 -1 -1 -1 -1 -1 -1 -1 -1 -1 -1 nan
nan -0 -0 -1 -0 -0 -1 -0 -0 -0 -0 -0 -0 -1 -1 -0 -0 -0 -0 -1 -1 -1 -1 -1 -1 -1 -1 -1 -1 -1 -1 -1 -1 -1 -1 -1 -1 -1 -1 -1 -0 -0 -0 0 -0 -0 -0 -1 -0 -0 -0 -0 -0 -1 -1 -1 -1 -1 -1 -1 -1 -1 -1 -1 -1 -1 -1 -1 nan
nan -1 -0 -1 -1 -0 -0 -0 -0 -0 -0 -0 -0 -0 -0 -1 -1 -0 -0 -1 -1 -1 -1 -1 -1 -1 -1 -1 -1 -1 -1 -1 -1 -1 -1 -1 -1 -1 -0 -0 -0 -0 0 0 -0 -0 -1 -1 -1 -0 -0 -1 -1 -1 -1 -1 -1 -1 -1 -1 -1 -1 -1 -1 -1 -1 -1 -0 nan
nan -1 -0 -1 -1 -1 -0 -1 -0 -1 -1 -1 -1 -1 -0 -1 -1 -1 -1 -1 -1 -1 -1 -0 -0 -0 -0 -0 -0 -1 -1 -1 -1 -0 -0 -1 -1 -1 -1 -0 -0 -0 0 0 0 -0 -1 -1 -1 -1 -1 -1 -1 -1 -1 -1 -1 -1 -1 -1 -1 -1 -1 -1 -1 -1 -1 -0 nan
nan -1 -0 -0 -1 -1 -1 -1 -1 -1 -1 -1 -1 -1 -1 -1 -1 -1 -1 -1 -1 -1 -1 -1 -1 -1 -1 -0 -0 -0 -1 -1 -1 -0 -0 -0 -1 -1 -1 -1 -1 -0 -0 0 0 -0 -0 -1 -1 -1 -1 -1 -1 -1 -1 -1 -1 -0 -0 -0 -0 -1 -1 -1 -1 -0 -0 -0 nan
nan -0 -0 -0 -0 -1 -1 -1 -1 -1 -1 -1 -1 -1 -1 -1 -0 -0 -1 -1 -1 -1 -1 -1 -1 -1 -1 -1 -1 -0 -0 -0 -1 -1 -0 -0 -0 -1 -1 -1 -1 -1 -1 -0 -0 -0 -1 -1 -1 -1 -1 -1 -1 -1 -0 -0 -0 -0 -0 -0 -0 -0 -1 -1 -1 -0 -0 -0 nan
nan -0 -0 -0 -0 -0 -1 -1 -1 -1 -1 -1 -1 -1 -1 -1 -1 -0 -0 -1 -1 -1 -1 -1 -1 -1 -1 -1 -1 -1 -0 -0 -0 -0 -0 -0 -0 -1 -1 -2 -1 -1 -1 -1 -0 -1 -1 -1 -1 -1 -1 -1 -0 -0 -0 -0 -0 -0 -0 -0 -0 -0 -1 -0 -0 -0 -0 -0 nan
nan -0 -0 -0 -0 -0 -0 -1 -1 -1 -1 -1 -1 -1 -1 -1 -1 -0 -0 -0 -0 -1 -1 -1 -0 -0 -0 -1 -1 -1 -1 -0 -0 -0 -0 -0 0 0 -0 -1 -1 -1 -1 -1 -1 -1 -1 -1 -1 -1 -0 -0 -0 -0 -0 -0 -0 -0 -0 0 -0 -0 -0 -0 -0 -0 -0 -0 nan
nan -0 -0 -0 -0 -0 -0 -0 -0 -1 -1 -1 -0 -1 -0 -0 -0 -0 -0 -0 0 -0 -0 -1 -1 -0 -0 -0 -1 -1 -1 -1 -0 -0 -0 -0 0 0 0 -0 -1 -1 -1 -1 -1 -1 -1 -1 -1 -1 -0 -0 -0 -0 -0 -0 -0 -0 0 0 0 -0 -0 -0 -0 0 -0 -0 nan
nan nan nan nan nan nan nan nan nan nan nan nan nan nan nan nan nan nan nan nan nan nan nan nan nan nan nan nan nan nan nan nan nan nan nan nan nan nan nan nan nan nan nan nan nan nan nan nan nan nan nan nan nan nan nan nan nan nan nan nan nan nan nan nan nan nan nan nan nan
Wind_Speed
23 24 24 25 25 26 26 27 27 28 28 29 30 31 32 33 33 34 34 35 34 34 33 33 32 32 32 32 32 32 32 32 32 32 32 32 32 32 32 32 32 32 32 32 33 33 33 33 33 33 32 32 32 31 30 28 27 27 26 25 25 26 26 27 27 27 28 28 28
25 26 26 27 27 28 28 29 29 30 30 31 32 32 33 33 33 33 33 33 32 32 32 31 31 31 31 31 31 31 31 31 31 32 32 32 32 32 32 32 32 32 32 33 33 33 33 33 33 33 33 33 32 31 30 29 27 27 26 26 25 26 26 27 27 27 28 28 28
26 27 27 28 29 29 29 30 31 31 31 32 32 32 32 32 32 32 32 31 31 31 30 30 30 30 30 30 31 31 31 31 31 31 31 32 32 32 32 32 32 32 33 33 33 33 33 33 33 33 34 33 33 32 31 30 29 27 27 27 26 26 27 27 27 28 28 29 29
26 27 27 28 28 29 29 30 30 31 31 31 31 31 31 31 31 30 30 30 30 30 30 30 30 30 30 30 30 30 30 31 31 31 31 31 32 32 32 32 33 33 33 33 33 33 33 34 34 34 34 34 34 33 32 31 30 29 28 28 28 28 28 28 28 29 29 30 30
25 26 27 27 28 29 29 30 30 30 30 30 30 30 30 30 30 29 29 29 29 29 29 29 29 29 30 30 30 30 30 30 30 31 31 31 32 32 32 33 33 33 33 34 34 34 34 35 35 36 36 36 35 34 33 33 32 32 31 31 30 30 30 30 30 30 30 31 31
25 25 26 26 27 28 28 29 29 29 29 29 29 29 29 29 29 29 28 29 29 29 29 29 29 29 29 29 29 29 29 30 30 31 31 32 32 32 33 33 33 34 34 34 35 35 35 36 37 37 37 37 37 36 35 35 34 34 34 33 32 32 32 32 32 32 32 32 32
24 25 25 26 26 27 27 28 28 28 28 28 28 28 28 28 28 28 28 28 29 29 29 29 28 28 28 28 29 29 29 30 30 31 31 32 32 33 33 34 34 34 35 35 35 36 36 37 38 38 38 38 38 37 36 36 35 35 35 35 34 34 33 33 33 33 33 33 33
24 24 25 25 26 26 26 26 26 26 27 27 27 27 27 28 28 28 28 28 28 28 28 28 27 27 27 27 28 28 29 30 30 31 32 32 33 33 34 34 35 35 35 36 36 37 37 38 38 38 38 38 38 37 37 36 36 35 35 35 35 35 34 34 33 33 33 33 33
24 24 24 24 25 25 25 25 25 25 25 26 26 26 27 27 28 28 28 28 27 27 27 26 26 26 26 27 27 28 29 30 31 32 32 33 33 34 34 35 35 36 36 36 37 37 38 38 38 39 38 38 38 37 37 36 36 35 35 35 35 35 35 34 33 33 33 32 32
23 23 23 23 23 23 23 24 24 24 24 25 25 26 26 27 27 27 27 26 26 25 25 25 25 25 26 26 27 28 29 30 31 32 33 33 33 34 35 35 35 36 36 37 37 38 38 39 39 39 39 38 38 38 37 37 36 35 35 35 34 35 34 34 33 32 32 32 32
22 21 21 22 22 22 22 23 23 23 23 24 24 25 25 26 26 26 25 25 24 24 24 24 24 25 26 27 28 29 30 31 31 32 33 33 34 34 35 35 36 36 37 37 38 38 39 39 39 39 39 39 39 38 38 38 37 36 35 35 35 34 34 34 33 32 32 32 32
20 20 20 21 21 21 21 22 22 22 22 23 23 24 24 25 25 24 24 23 23 23 23 23 24 25 26 27 28 29 30 31 32 32 33 33 34 35 35 36 36 37 37 38 38 39 39 39 40 40 40 40 40 39 39 39 38 37 37 36 36 35 34 34 33 33 32 32 31
19 20 20 20 20 21 21 21 21 22 22 22 23 24 24 24 24 24 23 23 22 23 23 23 24 25 27 28 29 30 31 31 32 33 33 34 34 35 36 36 37 37 38 38 39 39 39 40 40 40 40 41 41 40 40 40 39 38 37 37 36 35 35 34 34 33 32 32 32
19 19 19 20 20 20 20 21 21 22 22 23 23 24 24 24 23 23 23 22 22 23 23 24 25 26 27 28 30 30 31 32 32 33 34 34 35 35 36 37 37 38 38 39 39 39 39 40 40 40 41 41 41 41 41 41 40 39 37 36 36 35 35 35 34 34 33 33 32
19 19 19 20 20 20 21 21 22 22 23 23 24 24 24 23 23 23 23 22 23 23 24 25 26 27 28 29 30 31 31 32 33 33 34 35 35 36 37 37 38 38 39 39 39 39 39 40 40 40 41 41 41 41 41 41 40 39 38 37 36 36 35 35 35 34 33 33 32
19 19 20 20 20 21 21 22 23 23 24 24 24 24 24 23 23 23 23 23 23 24 24 25 26 27 28 29 30 31 32 32 33 34 35 35 36 37 37 37 38 38 39 39 39 40 40 40 40 40 40 41 41 42 41 41 41 40 39 38 38 37 36 36 35 34 34 33 32
19 20 20 21 21 21 22 23 24 24 24 24 24 24 23 23 23 23 23 23 24 24 25 26 27 28 29 30 30 31 32 33 34 34 35 36 36 37 37 38 38 38 39 39 40 40 40 40 40 40 40 41 41 41 41 41 41 41 40 40 39 38 37 36 36 35 34 33 32
20 20 21 21 21 22 22 23 24 24 24 24 24 24 23 23 23 23 23 23 24 25 26 27 28 28 29 30 31 32 32 33 34 35 35 36 36 37 37 38 38 38 39 39 39 40 40 40 40 40 40 41 41 41 41 41 41 41 41 40 40 39 38 37 37 35 34 33 32
20 21 21 21 22 22 23 24 24 24 24 24 24 23 23 23 23 23 24 24 25 26 27 28 28 29 30 30 31 32 33 33 34 35 35 36 36 37 37 38 38 38 39 39 39 40 40 40 40 40 40 41 41 41 41 41 41 41 41 41 40 40 39 39 38 36 35 33 32
21 21 21 21 22 23 23 24 24 24 24 24 24 23 23 23 23 24 24 25 26 27 27 28 29 30 30 31 32 32 33 34 34 35 35 36 36 37 37 38 38 38 39 39 39 39 40 40 40 40 40 41 41 41 41 41 41 41 41 41 41 40 40 39 38 37 35 33 33
20 21 21 22 22 23 24 24 24 25 24 24 24 23 23 24 24 24 25 26 27 27 28 29 29 30 31 31 32 33 33 34 34 35 35 36 36 37 37 37 38 38 39 39 39 39 39 40 40 40 40 41 41 41 41 41 41 42 42 41 41 41 40 39 38 37 35 34 33
20 20 21 22 23 24 24 24 24 24 24 24 24 24 24 24 25 25 26 26 27 28 28 29 30 30 31 32 32 33 34 34 35 35 35 36 36 37 37 37 38 38 38 39 39 39 39 40 40 40 40 40 41 41 41 41 41 42 42 42 42 41 41 40 38 37 35 34 34
20 21 22 23 23 24 24 24 24 24 24 25 25 25 25 25 26 26 26 27 28 28 29 29 30 30 31 32 32 33 34 35 35 35 35 36 36 37 37 37 38 38 38 38 39 39 39 40 40 40 40 40 40 40 40 41 41 41 42 42 42 42 41 40 39 37 36 35 35
21 22 22 23 23 23 23 24 24 25 25 25 25 26 26 26 26 27 27 28 28 29 29 30 30 31 31 32 33 33 34 35 35 36 36 36 36 36 37 37 38 38 38 38 38 38 38 39 39 39 39 39 39 39 40 40 40 41 41 41 42 42 41 40 39 38 37 37 36
22 22 22 22 22 23 23 24 25 25 25 26 26 26 26 27 27 28 28 28 29 29 30 30 31 31 32 32 33 33 34 35 35 36 36 36 36 36 37 37 38 38 38 38 38 38 37 37 37 37 37 38 38 39 39 40 40 40 41 41 41 41 41 41 40 39 38 37 37
22 22 22 22 22 23 23 24 25 25 26 26 27 27 27 27 28 28 29 29 29 30 30 31 31 32 32 33 33 34 34 35 35 36 36 37 37 37 37 37 38 38 38 38 38 38 37 37 36 36 36 36 37 38 39 39 40 40 40 40 40 40 40 40 40 39 39 38 37
22 21 21 21 22 23 24 25 25 26 26 27 27 27 28 28 28 29 29 29 30 30 31 31 32 32 33 34 34 34 34 35 35 35 36 36 37 37 37 38 38 38 38 38 38 37 37 37 36 36 35 36 36 37 38 39 39 39 39 39 39 39 38 38 39 39 38 38 37
21 21 21 21 22 23 24 25 26 26 27 27 28 28 28 28 29 29 29 30 30 31 31 32 32 33 34 34 34 34 35 35 35 36 36 36 37 37 37 38 38 38 38 38 38 37 37 37 36 36 36 35 36 36 37 37 38 38 38 38 38 38 38 37 37 37 37 37 37
21 21 21 22 22 23 24 25 26 27 27 28 28 28 28 29 29 29 30 30 31 31 32 33 33 34 34 34 34 35 35 35 35 36 36 37 37 37 37 38 38 38 38 38 38 38 37 37 37 36 36 35 35 35 36 36 36 37 37 37 37 37 37 37 37 37 37 37 37
20 21 21 22 23 24 25 26 27 27 28 28 28 28 29 29 29 30 30 31 31 32 32 33 34 34 34 34 35 35 35 36 36 36 36 37 37 38 38 38 39 39 39 39 39 38 38 37 37 36 36 35 34 34 34 35 35 36 36 36 36 36 36 36 36 37 37 37 37
20 21 22 23 24 25 25 26 27 27 28 28 28 28 29 29 30 30 31 32 32 33 33 33 34 34 34 35 35 35 36 36 36 37 37 37 38 38 39 39 39 40 40 40 39 39 38 37 37 36 35 35 34 33 34 34 35 35 35 36 36 36 36 36 36 36 36 37 37
20 21 22 24 24 25 26 27 27 27 28 28 28 29 29 30 30 31 31 32 33 33 34 34 34 35 35 35 36 36 36 36 37 37 37 37 38 39 39 40 40 41 41 40 39 39 38 37 37 36 35 34 33 33 33 34 34 35 35 35 35 35 35 35 36 36 36 36 36
21 22 23 24 25 26 26 27 27 27 28 28 28 29 30 30 31 31 32 32 33 33 34 34 35 35 35 36 36 37 37 37 37 37 37 38 39 39 40 41 41 41 41 41 40 39 38 37 36 35 34 33 33 33 34 34 35 35 35 35 35 35 35 35 35 36 36 36 35
22 23 24 25 25 26 26 26 27 27 28 28 29 29 30 31 32 32 33 33 33 34 34 34 35 35 35 36 36 36 37 37 37 38 38 38 39 40 41 42 42 42 42 41 40 39 38 37 36 35 34 33 33 33 34 34 35 35 35 35 35 35 35 35 35 35 35 35 35
24 25 25 25 26 26 26 27 27 28 28 29 30 30 31 31 32 32 33 34 34 34 35 35 35 35 36 36 36 36 37 38 38 39 39 39 40 41 42 42 43 42 42 41 40 39 37 36 35 34 33 32 33 33 34 34 34 34 34 34 34 35 35 35 35 35 34 34 34
24 25 25 25 25 26 26 27 28 28 29 30 30 31 32 32 32 33 33 34 35 35 35 36 36 36 36 36 37 37 37 38 39 40 40 40 41 42 43 43 43 43 42 41 39 38 37 36 34 33 32 32 32 33 33 33 33 33 33 33 34 34 35 35 35 35 34 34 34
24 25 25 25 26 26 27 27 28 29 30 31 31 32 32 33 33 33 34 35 35 36 36 36 36 36 37 37 38 38 38 38 39 40 41 41 42 42 43 44 43 43 42 41 39 38 36 35 34 33 32 32 32 32 33 32 32 32 32 33 34 34 34 35 35 34 34 34 35
24 24 25 25 26 27 27 28 29 30 31 31 32 32 33 33 34 34 34 35 35 36 37 37 37 37 37 38 38 39 39 39 40 41 42 42 42 42 43 43 43 43 41 40 38 37 36 35 33 32 31 30 31 32 32 32 31 32 32 32 33 34 34 34 34 34 34 34 36
23 24 25 26 27 27 28 29 30 31 31 32 33 33 33 34 34 35 35 35 35 36 36 37 37 37 37 38 39 40 40 41 41 41 42 43 43 42 42 42 43 42 41 39 37 36 35 34 33 31 29 29 30 30 31 30 30 31 32 32 34 34 35 34 34 34 34 35 36
23 24 25 26 27 28 29 30 31 31 32 32 33 34 34 34 35 35 35 35 35 35 36 37 37 38 38 38 39 41 42 42 42 42 42 43 43 42 42 42 42 41 40 38 37 36 35 33 31 30 28 28 29 29 29 29 30 31 32 32 33 34 35 34 34 34 35 36 36
23 24 26 27 28 29 30 31 31 32 32 33 33 34 34 35 35 35 36 36 36 36 36 37 37 38 38 39 40 41 42 43 43 43 43 43 43 43 42 42 42 41 39 38 36 35 34 32 30 28 28 27 28 28 29 29 30 31 32 33 33 34 35 35 35 35 36 37 38
Wind_Direction
3 2 1 359 358 357 355 354 353 352 351 350 350 348 346 344 343 341 339 338 338 339 339 339 340 340 340 339 340 340 339 339 339 339 338 338 337 337 336 336 335 335 335 334 333 332 332 331 330 329 329 328 328 327 327 327 326 324 321 319 317 315 314 314 314 314 314 315 316
1 359 357 356 354 353 352 351 350 349 348 347 346 344 342 340 339 337 337 337 338 339 339 339 339 340 340 340 340 340 340 339 339 339 338 338 338 338 337 337 337 336 336 335 334 334 333 332 331 330 329 329 328 328 328 328 328 326 323 321 319 317 316 316 316 316 316 316 317
358 356 354 353 352 350 350 349 348 346 345 343 341 340 338 337 336 336 336 337 338 338 339 340 339 339 340 340 340 340 340 340 339 339 339 339 339 339 339 339 338 338 337 337 336 335 334 333 332 331 330 330 329 329 329 329 328 326 324 322 321 320 319 319 319 319 318 318 318
356 354 352 351 349 348 347 346 345 343 341 339 338 336 335 335 335 335 336 337 338 339 339 340 340 339 339 340 340 340 340 340 340 340 341 341 341 341 341 341 341 340 340 339 338 337 336 335 334 332 331 331 330 330 329 328 327 325 324 322 321 321 321 321 320 320 319 319 319
354 352 350 349 347 346 344 343 341 340 338 336 335 334 333 334 334 336 337 337 339 339 339 339 340 340 340 340 340 340 341 341 342 342 342 343 343 343 343 343 342 342 341 341 340 339 338 337 336 334 333 332 331 330 329 328 326 325 323 322 321 321 321 321 321 320 319 319 319
353 351 349 347 345 344 342 340 339 337 336 334 333 333 333 334 335 336 338 338 339 339 339 339 339 340 340 340 340 341 342 343 343 344 344 344 345 345 344 344 344 343 342 342 341 340 339 338 337 336 335 334 332 331 330 329 326 325 323 322 321 321 321 322 321 321 321 320 320
354 352 349 347 344 342 340 338 336 335 334 334 333 333 334 335 336 337 338 338 338 339 339 339 340 340 340 341 341 342 343 344 345 345 345 345 345 345 345 344 344 343 343 342 342 341 340 340 338 337 336 335 334 332 331 329 327 325 324 323 322 321 322 322 322 322 323 322 322
355 352 350 347 344 341 338 336 335 334 333 333 333 334 335 335 336 337 337 337 338 338 339 339 340 340 341 341 342 343 344 345 345 346 346 346 345 344 344 344 343 343 342 342 341 341 340 340 339 338 337 336 335 333 332 330 328 327 325 324 322 322 322 323 324 324 324 324 324
356 353 350 346 343 340 337 335 334 333 333 333 333 334 335 335 336 336 336 337 337 338 339 339 339 340 341 342 343 344 345 345 346 346 345 345 344 344 343 343 342 342 341 341 341 340 340 339 339 338 337 336 335 334 332 331 330 328 326 325 324 324 323 324 325 326 326 326 326
355 353 349 345 341 338 336 334 334 333 332 332 333 333 334 334 334 335 335 336 337 338 338 339 340 341 342 343 344 345 345 345 345 345 344 344 344 343 343 342 342 341 341 340 340 340 339 338 338 337 336 335 334 333 332 331 330 329 328 327 326 326 326 326 327 327 327 327 327
355 352 348 344 340 337 335 333 332 332 331 331 331 332 332 333 333 334 335 336 337 338 339 340 341 342 343 343 344 345 345 345 345 344 344 343 343 343 342 342 341 341 340 340 339 339 338 337 336 336 335 334 334 333 332 332 331 330 329 329 329 329 329 329 329 329 329 328 328
353 350 347 343 339 336 333 331 330 330 330 329 330 331 332 333 334 335 336 337 338 339 340 341 342 342 343 343 344 344 344 344 344 344 343 343 342 342 342 341 341 340 339 339 339 338 337 336 336 335 334 333 333 332 332 332 331 331 331 331 331 331 331 331 331 331 330 329 329
351 348 345 342 338 334 331 329 328 328 329 330 331 332 333 334 335 336 337 338 339 339 340 341 342 343 343 343 343 344 344 344 343 343 343 342 342 341 341 340 340 339 339 338 338 337 336 336 335 334 334 333 332 332 332 332 332 333 333 333 333 333 333 333 333 332 332 331 330
349 346 343 340 336 333 330 328 328 329 330 331 333 334 335 336 337 337 338 338 339 340 340 341 342 342 343 343 343 343 343 343 343 342 342 342 341 341 340 340 339 338 338 337 337 336 336 335 334 334 333 332 331 331 330 331 332 333 334 334 334 333 333 333 333 333 333 332 331
346 344 341 338 335 332 330 329 329 330 332 333 335 336 337 337 337 337 338 338 338 339 339 340 341 341 342 342 342 342 342 342 342 341 341 341 340 340 339 339 338 338 337 336 336 336 335 334 333 333 332 331 330 329 329 330 331 332 332 332 332 332 332 332 333 333 333 333 332
343 342 340 338 335 333 331 330 331 332 334 335 336 337 337 337 337 337 337 337 338 338 339 339 340 341 341 342 342 341 341 341 341 341 340 340 339 339 339 338 337 337 336 336 335 334 334 333 332 331 330 330 329 328 328 328 329 329 330 330 330 330 331 331 332 332 332 332 331
341 340 339 338 335 333 332 332 333 334 335 336 337 337 337 336 336 336 337 337 337 337 338 339 340 340 340 341 341 341 341 341 340 340 340 339 339 338 337 337 336 336 335 335 334 334 333 332 331 330 329 328 327 327 327 327 327 327 327 327 327 328 328 329 330 330 330 330 329
339 339 338 337 335 334 333 334 335 335 336 336 336 336 335 335 335 335 335 336 336 337 338 338 339 340 340 340 340 340 340 340 340 339 339 338 338 337 336 336 335 335 334 334 334 333 332 331 330 329 328 327 326 325 325 325 325 325 325 325 325 325 326 327 328 328 328 328 327
338 337 336 335 335 334 335 336 336 336 336 335 335 334 334 334 334 334 334 335 336 337 337 338 339 339 339 340 339 339 339 339 339 338 338 337 337 336 335 335 334 334 334 334 333 332 331 331 329 328 327 326 325 324 324 324 323 323 323 323 323 324 324 325 326 326 327 326 325
335 335 334 334 335 336 337 337 337 336 335 334 333 332 332 332 332 333 334 334 335 336 337 338 338 338 338 338 338 338 338 338 338 337 336 336 335 335 335 334 334 333 333 333 332 332 331 330 329 328 327 326 325 325 324 323 323 322 322 322 322 323 323 324 324 325 325 324 323
332 333 333 334 336 337 338 338 336 335 333 332 331 330 330 330 331 332 333 334 335 336 336 337 337 337 337 337 337 337 337 337 336 336 335 335 335 334 334 334 333 333 332 332 332 331 330 329 328 328 327 326 326 325 325 324 323 323 322 322 322 322 322 323 324 324 324 323 322
330 332 334 336 338 338 338 337 335 333 331 330 329 328 329 329 330 332 333 334 335 335 336 336 336 336 336 336 336 336 335 335 335 335 334 334 334 333 333 333 332 332 332 332 331 331 330 329 329 328 328 327 326 326 325 324 324 323 322 322 322 322 322 322 323 323 323 322 322
331 333 335 337 338 338 337 335 333 331 329 328 327 327 328 329 330 331 332 333 334 334 335 335 335 335 335 335 335 334 334 334 333 333 333 333 333 332 332 332 332 332 331 331 332 331 331 330 330 329 329 328 327 326 325 324 323 323 322 322 322 321 321 322 322 322 322 322 322
332 335 336 337 337 336 335 333 331 329 328 327 326 327 327 328 329 330 332 333 333 334 334 334 334 334 334 333 333 333 333 332 332 332 332 332 332 332 331 331 331 331 331 332 332 332 332 332 331 330 329 328 327 325 324 323 323 322 322 322 321 321 321 321 321 322 322 322 322
334 335 336 336 335 334 333 331 329 328 327 326 326 327 327 328 329 331 332 332 333 333 333 332 332 332 332 332 332 332 332 331 331 331 331 331 331 331 331 331 331 331 331 332 332 332 332 331 331 330 328 327 326 324 323 322 322 321 321 321 321 321 320 320 320 321 322 322 322
334 334 334 334 333 332 331 330 329 327 327 326 326 326 328 329 330 331 332 332 332 332 332 331 331 331 331 331 330 330 330 330 330 330 330 330 330 331 331 331 331 332 332 332 332 332 331 330 329 329 327 326 325 324 322 321 321 320 320 320 320 320 320 320 320 321 321 321 322
333 333 333 333 332 331 330 329 328 327 326 326 326 327 329 330 331 331 331 331 331 331 331 330 330 330 330 329 329 329 329 329 329 330 330 330 331 331 331 331 332 332 332 332 332 331 331 330 329 328 327 325 324 323 322 321 320 319 319 319 319 319 319 320 320 321 321 321 322
332 332 332 332 331 330 329 328 327 326 326 326 327 328 329 330 331 331 331 330 330 330 330 329 329 329 329 328 328 328 328 329 329 330 330 330 330 331 331 331 332 332 333 333 332 331 331 330 329 328 326 325 323 322 321 320 319 319 318 318 318 318 319 319 320 320 320 321 322
332 332 332 331 330 329 328 328 327 326 327 327 328 329 330 330 331 331 330 330 329 329 329 329 328 328 327 327 327 327 327 328 329 329 330 330 330 331 331 332 332 332 333 333 332 332 331 330 329 327 326 325 323 322 320 319 319 318 318 317 317 318 319 320 320 320 321 321 322
332 332 331 330 329 329 328 327 327 327 327 328 329 329 330 330 330 330 330 329 329 329 328 327 327 326 326 326 326 327 327 328 329 330 330 331 331 331 332 332 333 333 333 333 333 332 331 330 329 327 326 324 323 321 320 319 319 318 318 317 318 318 319 320 321 321 321 322 322
332 332 330 330 329 328 327 327 327 327 327 328 329 329 330 330 330 329 329 328 328 327 326 326 325 325 325 325 326 326 327 328 329 330 331 332 332 332 332 332 333 333 333 333 333 332 331 330 328 327 325 324 323 321 320 320 319 319 318 318 318 319 320 320 321 321 321 322 322
332 331 330 329 328 327 327 327 327 327 327 328 329 329 329 329 329 328 328 327 326 325 325 325 325 325 325 325 326 327 327 328 330 331 332 332 332 332 332 332 332 333 333 333 332 332 331 329 328 327 325 324 323 322 321 321 321 320 319 319 319 320 320 321 321 321 321 321 321
332 331 329 328 328 327 327 327 326 327 327 328 328 328 328 328 327 327 326 325 324 324 324 325 325 325 326 326 326 327 328 329 330 331 332 332 332 332 332 332 332 333 333 333 332 332 331 329 328 327 326 325 325 324 323 323 322 321 320 320 320 320 320 320 321 321 321 321 321
331 330 329 328 327 327 327 327 326 327 327 327 328 328 327 327 326 325 325 324 323 323 323 324 324 325 325 326 326 327 328 329 330 331 332 333 332 332 332 332 332 332 332 332 332 331 331 329 328 327 327 327 327 327 325 324 323 321 320 319 319 320 320 320 321 321 321 321 321
330 329 329 328 328 327 327 327 327 327 327 327 327 326 326 325 325 324 324 323 323 322 323 323 323 323 324 325 326 327 328 329 330 331 332 333 332 332 331 331 331 332 332 332 332 332 331 330 329 330 330 330 329 328 326 324 322 320 319 319 319 319 320 320 321 321 321 321 321
330 330 329 328 328 328 327 327 327 327 327 326 326 325 325 324 324 323 323 322 322 322 322 323 323 324 324 325 326 327 329 330 331 331 332 332 332 332 331 331 331 332 332 332 332 332 332 331 331 333 333 332 330 327 324 322 320 319 319 319 318 319 320 321 321 321 321 320 320
331 330 329 329 329 328 328 327 327 326 326 325 325 324 324 323 323 323 322 322 322 322 322 323 323 324 325 326 327 328 329 330 331 331 332 332 332 332 332 331 331 332 332 333 333 333 333 333 334 336 335 332 327 324 322 321 320 319 319 319 319 319 320 321 321 320 320 319 319
331 331 330 330 329 328 328 327 327 326 325 325 324 324 323 323 323 323 322 322 322 322 322 322 323 324 326 326 327 328 329 330 331 331 332 332 332 332 332 332 332 332 333 333 334 334 334 335 337 337 334 328 324 322 322 321 320 319 319 319 319 320 320 321 320 319 318 318 318
332 331 330 330 329 328 328 327 326 326 325 324 323 323 323 322 322 322 322 322 322 321 322 322 323 324 326 327 327 328 328 329 330 331 331 332 332 332 332 332 332 332 333 334 335 335 337 338 338 336 331 325 323 322 322 321 320 320 320 320 320 320 320 320 319 318 317 316 318
332 331 330 329 329 328 327 327 326 325 324 324 323 323 323 322 322 321 321 321 321 321 321 322 323 324 326 327 327 328 328 329 330 330 331 331 331 331 332 332 332 333 334 335 336 337 339 340 337 333 328 325 323 323 322 322 321 320 320 320 320 320 320 319 318 317 317 318 320
332 331 330 329 329 328 327 327 326 325 324 324 323 323 322 321 321 321 320 320 320 321 321 322 323 324 326 327 327 328 328 329 329 330 331 331 331 331 332 332 333 334 336 337 338 339 340 339 334 330 327 325 324 323 323 322 321 321 320 320 320 319 318 318 318 318 321 323 325
Height
1486 1485 1485 1484 1484 1483 1482 1482 1481 1480 1479 1479 1478 1477 1476 1475 1474 1474 1473 1472 1471 1469 1469 1468 1467 1466 1464 1463 1462 1461 1459 1458 1457 1456 1454 1453 1452 1450 1449 1447 1446 1444 1443 1441 1440 1438 1437 1435 1434 1433 1431 1430 1429 1428 1426 1425 1424 1422 1421 1420 1418 1417 1415 1414 1413 1411 1410 1409 1407
1485 1485 1484 1484 1483 1483 1482 1481 1480 1480 1479 1478 1478 1477 1476 1475 1474 1474 1473 1471 1470 1469 1468 1467 1466 1465 1464 1463 1461 1460 1459 1457 1456 1455 1454 1452 1451 1449 1448 1446 1445 1443 1442 1440 1439 1437 1435 1434 1433 1431 1430 1428 1427 1426 1424 1423 1422 1420 1419 1418 1416 1415 1414 1412 1411 1410 1408 1407 1405
1485 1485 1484 1484 1483 1482 1482 1481 1480 1479 1479 1478 1478 1477 1476 1475 1474 1474 1472 1471 1470 1469 1468 1467 1465 1464 1463 1462 1460 1459 1458 1456 1455 1454 1452 1451 1450 1448 1447 1445 1444 1442 1441 1439 1438 1436 1434 1433 1431 1430 1429 1427 1425 1424 1423 1421 1420 1419 1418 1416 1415 1414 1412 1411 1409 1408 1407 1405 1404
1485 1485 1484 1483 1483 1482 1481 1481 1480 1479 1479 1478 1478 1477 1476 1475 1474 1473 1472 1471 1469 1468 1467 1466 1464 1463 1462 1461 1459 1458 1457 1456 1454 1453 1451 1450 1449 1447 1445 1444 1442 1441 1439 1438 1436 1435 1433 1432 1430 1429 1427 1425 1424 1423 1421 1420 1419 1417 1416 1415 1414 1412 1411 1409 1408 1407 1405 1404 1402
1485 1484 1484 1483 1483 1482 1481 1481 1480 1479 1479 1478 1477 1476 1475 1474 1473 1472 1471 1470 1469 1467 1466 1465 1464 1462 1461 1460 1459 1457 1456 1454 1453 1452 1450 1449 1447 1446 1444 1443 1441 1440 1438 1437 1435 1434 1432 1430 1429 1427 1426 1424 1423 1421 1420 1419 1417 1416 1414 1413 1412 1411 1409 1408 1406 1405 1404 1402 1400
1485 1484 1484 1483 1483 1482 1481 1480 1479 1479 1478 1477 1476 1475 1474 1473 1472 1471 1470 1469 1468 1466 1465 1464 1463 1461 1460 1459 1457 1456 1455 1454 1452 1451 1449 1448 1446 1444 1443 1442 1440 1439 1437 1436 1434 1432 1431 1429 1427 1426 1424 1423 1421 1420 1419 1417 1416 1414 1412 1411 1410 1409 1408 1406 1405 1403 1402 1400 1399
1485 1484 1484 1483 1482 1481 1480 1480 1479 1478 1477 1476 1475 1474 1473 1472 1471 1470 1469 1468 1467 1465 1464 1463 1461 1460 1459 1458 1456 1455 1454 1452 1451 1449 1448 1446 1445 1444 1442 1441 1439 1438 1436 1434 1433 1431 1429 1428 1426 1424 1423 1421 1420 1418 1417 1416 1414 1412 1411 1409 1408 1407 1406 1404 1403 1401 1400 1398 1396
1484 1484 1483 1482 1481 1480 1480 1479 1478 1477 1476 1475 1474 1473 1472 1471 1470 1469 1468 1467 1465 1464 1463 1462 1460 1459 1458 1457 1455 1454 1453 1451 1450 1448 1447 1445 1444 1442 1441 1439 1438 1436 1435 1433 1432 1430 1428 1427 1425 1423 1421 1420 1418 1417 1415 1414 1413 1411 1409 1408 1406 1405 1404 1403 1401 1399 1398 1396 1394
1484 1483 1482 1481 1480 1480 1479 1478 1477 1475 1474 1474 1473 1472 1471 1470 1469 1468 1467 1466 1464 1463 1462 1461 1459 1458 1457 1456 1454 1453 1452 1450 1449 1447 1446 1444 1443 1441 1440 1438 1437 1435 1434 1432 1431 1429 1427 1425 1424 1422 1421 1419 1417 1415 1414 1413 1411 1409 1408 1406 1404 1403 1402 1401 1399 1398 1396 1394 1393
1483 1482 1481 1481 1480 1479 1478 1477 1476 1474 1474 1473 1472 1471 1470 1469 1468 1467 1466 1465 1464 1462 1461 1460 1459 1457 1456 1455 1453 1452 1451 1449 1448 1446 1445 1443 1442 1440 1439 1437 1435 1434 1432 1431 1429 1428 1426 1424 1423 1421 1419 1418 1416 1414 1413 1411 1410 1408 1406 1405 1403 1401 1400 1399 1398 1396 1394 1393 1391
1482 1481 1480 1480 1479 1478 1477 1476 1475 1474 1473 1472 1471 1470 1469 1468 1467 1466 1465 1464 1463 1461 1460 1459 1458 1456 1455 1454 1452 1451 1449 1448 1447 1445 1444 1442 1441 1439 1438 1436 1434 1433 1431 1429 1428 1426 1424 1423 1421 1419 1418 1416 1415 1413 1411 1409 1408 1406 1405 1403 1402 1400 1398 1397 1396 1394 1393 1391 1389
1481 1480 1479 1479 1478 1478 1477 1476 1474 1473 1472 1471 1470 1469 1468 1467 1466 1465 1464 1463 1461 1460 1459 1458 1457 1455 1454 1453 1451 1450 1449 1447 1446 1444 1443 1441 1439 1438 1436 1435 1433 1432 1430 1428 1427 1425 1423 1421 1419 1418 1416 1414 1413 1411 1409 1408 1406 1404 1403 1401 1399 1398 1397 1395 1394 1392 1391 1389 1388
1480 1479 1479 1478 1478 1477 1476 1475 1474 1473 1471 1470 1469 1468 1467 1466 1464 1463 1462 1461 1460 1459 1458 1457 1456 1454 1453 1451 1450 1449 1448 1446 1444 1443 1441 1440 1438 1437 1435 1434 1432 1430 1429 1427 1425 1424 1422 1420 1418 1416 1414 1413 1411 1409 1408 1406 1404 1402 1401 1399 1398 1396 1395 1394 1392 1390 1389 1388 1386
1479 1479 1478 1478 1477 1476 1475 1474 1473 1472 1470 1469 1468 1466 1465 1464 1463 1462 1461 1460 1459 1458 1457 1456 1454 1453 1452 1450 1449 1448 1446 1445 1444 1442 1440 1439 1437 1436 1434 1432 1431 1429 1428 1426 1424 1423 1421 1419 1417 1415 1413 1411 1409 1408 1406 1404 1403 1401 1399 1398 1396 1395 1393 1392 1390 1389 1387 1385 1384
1479 1478 1477 1477 1476 1475 1474 1473 1472 1471 1469 1468 1466 1465 1464 1463 1462 1461 1460 1459 1458 1457 1456 1455 1454 1452 1451 1450 1448 1447 1445 1444 1442 1441 1439 1438 1436 1434 1433 1431 1429 1428 1426 1424 1423 1421 1420 1418 1416 1414 1412 1410 1408 1406 1404 1403 1401 1399 1398 1397 1395 1393 1392 1390 1389 1387 1386 1384 1382
1478 1477 1476 1475 1475 1474 1473 1472 1471 1470 1468 1466 1465 1464 1462 1461 1460 1460 1459 1458 1457 1456 1455 1454 1453 1451 1450 1449 1447 1446 1444 1443 1441 1439 1438 1436 1434 1433 1432 1430 1429 1427 1425 1423 1422 1420 1419 1417 1415 1413 1411 1409 1407 1405 1403 1401 1399 1398 1396 1395 1394 1392 1390 1389 1387 1386 1384 1383 1381
1477 1476 1475 1474 1474 1473 1472 1471 1470 1468 1467 1465 1464 1462 1461 1460 1459 1459 1458 1457 1456 1455 1454 1453 1451 1450 1449 1447 1446 1445 1443 1441 1440 1438 1437 1435 1434 1432 1430 1429 1427 1426 1424 1422 1420 1419 1417 1415 1414 1412 1410 1408 1406 1404 1402 1400 1398 1397 1395 1394 1392 1391 1389 1388 1386 1384 1383 1381 1380
1476 1475 1474 1473 1472 1472 1471 1469 1468 1467 1465 1464 1463 1461 1460 1459 1459 1458 1457 1456 1455 1454 1452 1451 1450 1449 1448 1446 1445 1443 1442 1440 1439 1437 1436 1434 1433 1431 1429 1428 1426 1424 1423 1421 1419 1417 1415 1414 1412 1410 1409 1406 1404 1403 1401 1399 1397 1395 1394 1392 1390 1389 1387 1386 1384 1383 1382 1380 1378
1475 1474 1473 1472 1471 1470 1469 1468 1467 1465 1464 1463 1462 1460 1459 1459 1458 1457 1456 1455 1454 1453 1451 1450 1449 1448 1447 1445 1444 1442 1441 1439 1438 1436 1434 1433 1432 1430 1428 1426 1425 1423 1422 1420 1418 1416 1414 1412 1410 1409 1407 1405 1403 1401 1399 1397 1395 1394 1392 1390 1389 1387 1386 1384 1383 1381 1380 1379 1377
1474 1473 1472 1471 1470 1469 1468 1467 1465 1464 1463 1462 1461 1460 1459 1458 1457 1456 1455 1454 1453 1451 1450 1449 1448 1447 1445 1444 1443 1441 1440 1438 1437 1435 1434 1432 1430 1429 1427 1425 1423 1422 1420 1419 1417 1415 1413 1411 1409 1407 1405 1403 1401 1399 1397 1395 1394 1392 1390 1389 1387 1385 1384 1382 1381 1379 1378 1377 1375
1473 1472 1471 1470 1469 1468 1466 1465 1464 1463 1462 1461 1460 1459 1458 1457 1456 1455 1454 1453 1452 1450 1449 1448 1447 1445 1444 1443 1441 1440 1439 1437 1436 1434 1433 1431 1429 1427 1425 1424 1422 1420 1419 1417 1415 1413 1411 1409 1408 1405 1403 1401 1399 1397 1395 1393 1391 1389 1388 1386 1385 1383 1382 1380 1379 1377 1376 1374 1373
1472 1471 1470 1469 1467 1466 1465 1464 1463 1462 1461 1460 1459 1458 1457 1456 1455 1454 1453 1452 1451 1449 1448 1447 1446 1444 1443 1442 1440 1439 1437 1436 1434 1433 1431 1429 1428 1426 1424 1423 1421 1419 1417 1415 1414 1411 1409 1407 1405 1404 1401 1399 1397 1395 1393 1392 1389 1388 1386 1384 1383 1381 1379 1378 1377 1375 1374 1372 1371
1471 1470 1469 1467 1466 1465 1464 1464 1463 1462 1460 1459 1458 1457 1456 1455 1454 1453 1452 1451 1450 1449 1447 1446 1445 1444 1442 1440 1439 1438 1436 1434 1433 1431 1430 1429 1427 1425 1423 1421 1419 1418 1416 1414 1412 1410 1408 1405 1403 1401 1399 1398 1395 1394 1392 1390 1388 1386 1384 1382 1380 1379 1377 1376 1374 1373 1371 1370 1368
1470 1469 1467 1466 1465 1464 1464 1463 1462 1461 1459 1458 1457 1456 1455 1454 1453 1452 1451 1450 1449 1448 1446 1445 1444 1442 1441 1439 1438 1436 1434 1433 1431 1429 1428 1427 1425 1424 1421 1420 1418 1416 1414 1413 1411 1409 1407 1404 1402 1399 1398 1396 1394 1392 1390 1388 1386 1384 1382 1380 1378 1376 1375 1373 1372 1370 1369 1367 1365
1469 1468 1466 1466 1464 1464 1463 1462 1461 1459 1459 1457 1456 1455 1454 1453 1452 1451 1450 1449 1448 1446 1445 1444 1442 1441 1440 1438 1437 1435 1434 1432 1430 1428 1426 1425 1423 1422 1420 1418 1416 1415 1413 1411 1409 1408 1406 1404 1401 1399 1397 1394 1392 1390 1388 1387 1385 1383 1381 1379 1377 1374 1372 1370 1369 1368 1366 1365 1363
1468 1467 1465 1464 1464 1463 1462 1461 1460 1459 1458 1457 1455 1454 1453 1452 1451 1450 1449 1448 1446 1445 1444 1443 1441 1440 1438 1437 1435 1434 1432 1430 1429 1427 1425 1423 1421 1420 1418 1417 1415 1413 1411 1409 1408 1406 1404 1403 1401 1399 1396 1394 1391 1389 1387 1384 1383 1381 1379 1377 1375 1373 1371 1369 1367 1365 1364 1362 1361
1467 1466 1465 1464 1463 1462 1461 1460 1459 1458 1457 1455 1454 1454 1452 1451 1450 1449 1448 1446 1445 1444 1443 1441 1440 1438 1437 1435 1434 1432 1430 1429 1427 1425 1424 1422 1420 1418 1416 1415 1413 1411 1409 1408 1406 1404 1403 1401 1399 1397 1395 1393 1390 1388 1385 1383 1381 1379 1377 1375 1373 1371 1369 1367 1365 1363 1361 1359 1358
1466 1465 1464 1463 1462 1461 1460 1459 1458 1457 1456 1454 1454 1453 1451 1450 1449 1448 1446 1445 1444 1443 1441 1440 1438 1437 1435 1434 1432 1430 1429 1427 1425 1424 1422 1420 1419 1417 1415 1413 1411 1410 1408 1406 1404 1403 1401 1399 1397 1395 1393 1391 1389 1386 1384 1381 1379 1377 1375 1373 1371 1369 1368 1365 1364 1361 1359 1357 1355
1465 1464 1463 1462 1461 1460 1459 1458 1457 1456 1455 1454 1452 1451 1450 1449 1448 1447 1445 1444 1442 1441 1439 1438 1436 1435 1434 1432 1430 1429 1427 1426 1424 1422 1420 1419 1417 1415 1414 1412 1410 1408 1406 1405 1403 1400 1399 1397 1395 1393 1391 1389 1387 1384 1382 1380 1378 1375 1373 1371 1369 1368 1366 1364 1362 1359 1358 1355 1354
1464 1463 1462 1461 1460 1459 1458 1457 1456 1455 1454 1452 1451 1450 1449 1448 1447 1445 1444 1442 1441 1439 1438 1437 1435 1434 1432 1430 1429 1427 1425 1424 1422 1421 1419 1417 1415 1413 1411 1410 1408 1406 1404 1403 1400 1399 1397 1394 1393 1391 1389 1387 1385 1383 1380 1378 1376 1374 1372 1369 1368 1366 1364 1362 1360 1358 1356 1354 1352
1463 1462 1461 1460 1459 1458 1457 1456 1455 1454 1453 1451 1450 1449 1448 1447 1445 1444 1442 1441 1439 1438 1437 1436 1434 1432 1431 1429 1428 1426 1424 1423 1421 1419 1417 1415 1413 1411 1409 1408 1406 1404 1402 1400 1399 1396 1394 1392 1390 1389 1387 1385 1383 1381 1379 1376 1374 1372 1370 1368 1365 1364 1362 1360 1358 1356 1354 1352 1350
1462 1461 1460 1459 1458 1457 1456 1455 1454 1453 1451 1450 1449 1448 1447 1445 1444 1443 1441 1440 1438 1437 1435 1434 1432 1430 1429 1427 1426 1424 1423 1421 1419 1418 1415 1414 1412 1409 1407 1406 1404 1402 1400 1398 1396 1394 1392 1390 1388 1386 1384 1383 1381 1379 1376 1374 1372 1370 1368 1365 1364 1362 1360 1358 1356 1354 1352 1351 1349
1461 1459 1459 1458 1456 1455 1454 1454 1453 1451 1450 1449 1448 1447 1446 1444 1443 1442 1440 1439 1437 1435 1434 1432 1430 1429 1427 1425 1424 1422 1420 1419 1418 1416 1414 1412 1410 1408 1405 1404 1402 1400 1398 1396 1394 1392 1390 1388 1386 1384 1382 1380 1378 1376 1374 1372 1369 1367 1365 1363 1361 1360 1358 1356 1354 1352 1351 1349 1347
1459 1459 1458 1456 1455 1454 1453 1452 1451 1450 1449 1448 1447 1446 1444 1443 1442 1440 1439 1437 1435 1434 1433 1431 1429 1428 1426 1424 1423 1421 1419 1417 1415 1414 1412 1410 1408 1406 1404 1402 1400 1398 1396 1394 1392 1390 1388 1386 1384 1382 1380 1378 1376 1374 1371 1369 1367 1365 1363 1361 1359 1358 1356 1354 1352 1351 1349 1347 1345
1458 1457 1456 1455 1454 1453 1452 1451 1450 1449 1448 1447 1446 1444 1443 1442 1440 1439 1437 1435 1434 1432 1431 1429 1428 1426 1424 1423 1421 1419 1418 1415 1413 1412 1410 1408 1406 1404 1402 1400 1398 1396 1394 1392 1390 1388 1386 1384 1382 1380 1378 1376 1374 1371 1369 1367 1365 1363 1361 1359 1357 1355 1354 1352 1350 1349 1347 1345 1343
1457 1456 1455 1454 1453 1452 1451 1450 1449 1448 1447 1446 1444 1443 1442 1440 1439 1438 1436 1434 1432 1430 1429 1428 1426 1424 1423 1421 1419 1417 1416 1414 1412 1409 1408 1406 1404 1402 1399 1397 1396 1394 1392 1390 1388 1386 1384 1382 1380 1378 1376 1374 1371 1369 1367 1365 1363 1361 1359 1357 1355 1354 1352 1350 1348 1346 1344 1343 1341
1456 1455 1454 1453 1452 1451 1450 1449 1448 1447 1445 1444 1443 1442 1440 1439 1437 1436 1434 1432 1430 1429 1427 1426 1424 1423 1421 1419 1417 1415 1414 1412 1410 1408 1406 1404 1402 1400 1397 1395 1393 1392 1390 1388 1386 1384 1382 1379 1378 1376 1374 1372 1370 1368 1366 1364 1362 1359 1357 1355 1353 1352 1350 1348 1346 1344 1343 1341 1339
1455 1454 1453 1452 1451 1450 1449 1448 1447 1445 1444 1443 1442 1440 1439 1437 1435 1434 1432 1431 1429 1427 1425 1423 1422 1421 1419 1417 1415 1413 1412 1410 1409 1407 1404 1402 1400 1398 1396 1393 1391 1389 1388 1386 1384 1382 1379 1377 1376 1374 1373 1370 1369 1366 1364 1362 1360 1358 1356 1354 1351 1349 1348 1346 1344 1342 1340 1339 1338
1454 1453 1452 1451 1450 1449 1448 1447 1446 1444 1443 1441 1440 1439 1437 1435 1434 1432 1431 1429 1428 1426 1424 1422 1420 1419 1417 1415 1413 1411 1409 1408 1407 1405 1403 1400 1398 1396 1394 1391 1389 1387 1385 1384 1382 1379 1377 1375 1374 1373 1371 1369 1367 1365 1363 1361 1359 1356 1354 1352 1350 1348 1345 1344 1342 1340 1338 1337 1335
1454 1453 1452 1451 1449 1448 1447 1446 1444 1443 1442 1440 1439 1437 1435 1434 1432 1431 1429 1428 1426 1424 1422 1420 1419 1417 1415 1414 1411 1409 1407 1406 1404 1403 1401 1399 1397 1394 1393 1390 1387 1385 1383 1381 1379 1377 1375 1374 1372 1371 1370 1368 1366 1364 1362 1360 1357 1355 1353 1351 1349 1346 1344 1342 1340 1339 1336 1334 1333
1453 1452 1451 1450 1449 1447 1446 1444 1443 1442 1440 1439 1437 1436 1434 1432 1431 1429 1428 1426 1424 1423 1421 1419 1417 1415 1414 1412 1409 1407 1405 1404 1402 1401 1399 1397 1395 1393 1390 1388 1385 1383 1381 1379 1377 1375 1374 1372 1371 1370 1369 1367 1365 1363 1361 1359 1356 1354 1352 1349 1347 1345 1342 1340 1338 1336 1334 1333 1331